When you browse on this site, cookies collect data to enhance your experience and personalize the content and advertising you see.
Visit our Privacy Policy to learn more. By continuing to use the site, you agree to this use of cookies and data.
  • en France
  • Liste des pays
  • À 7 jours
  • Température de l'eau
  • Carte météo
  • Widgets météo
  • user-avatar
    Se connecter

    Météo par heure à Djelfa

    Ce jour, 5 Juin, Vendredi

    Heure Température Précipitation Vent Pression Humidité
    00:00 +17°C° 0 mm 9 m/s 662 mmHg 59%
    01:00 +16°C° 0 mm 10 m/s 662 mmHg 64%
    02:00 +16°C° 0 mm 11 m/s 661 mmHg 69%
    03:00 +14°C° 0 mm 12 m/s 661 mmHg 74%
    04:00 +14°C° 0 mm 12 m/s 662 mmHg 73%
    05:00 +14°C° 0 mm 11 m/s 662 mmHg 71%
    06:00 +14°C° 0 mm 11 m/s 662 mmHg 70%
    07:00 +16°C° 0 mm 10 m/s 663 mmHg 64%
    08:00 +17°C° 0 mm 10 m/s 663 mmHg 58%
    09:00 +19°C° 0 mm 10 m/s 663 mmHg 52%
    10:00 +21°C° 0 mm 10 m/s 664 mmHg 47%
    11:00 +22°C° 0 mm 9 m/s 664 mmHg 41%
    12:00 +24°C° 0 mm 9 m/s 665 mmHg 35%
    13:00 +24°C° 0 mm 8 m/s 665 mmHg 33%
    14:00 +26°C° 0 mm 8 m/s 665 mmHg 30%
    15:00 +26°C° 0 mm 7 m/s 664 mmHg 27%
    16:00 +26°C° 0 mm 7 m/s 665 mmHg 28%
    17:00 +26°C° 0 mm 6 m/s 665 mmHg 29%
    18:00 +24°C° 0 mm 6 m/s 665 mmHg 30%
    19:00 +23°C° 0 mm 5 m/s 665 mmHg 34%
    20:00 +22°C° 0 mm 5 m/s 665 mmHg 39%
    21:00 +21°C° 0 mm 4 m/s 666 mmHg 43%
    22:00 +20°C° 0 mm 3 m/s 665 mmHg 46%
    23:00 +19°C° 0 mm 3 m/s 665 mmHg 49%

    Demain, 6 Juin, Samedi

    Heure Température Précipitation Vent Pression Humidité
    00:00 +19°C° 0 mm 3 m/s 665 mmHg 52%
    01:00 +18°C° 0 mm 3 m/s 665 mmHg 52%
    02:00 +18°C° 0 mm 2 m/s 664 mmHg 52%
    03:00 +18°C° 0 mm 2 m/s 664 mmHg 53%
    04:00 +18°C° 0 mm 2 m/s 665 mmHg 49%
    05:00 +19°C° 0 mm 3 m/s 665 mmHg 46%
    06:00 +19°C° 0 mm 3 m/s 665 mmHg 42%
    07:00 +21°C° 0 mm 3 m/s 666 mmHg 36%
    08:00 +23°C° 0 mm 4 m/s 666 mmHg 30%
    09:00 +26°C° 0 mm 5 m/s 667 mmHg 23%
    10:00 +28°C° 0 mm 5 m/s 667 mmHg 21%
    11:00 +29°C° 0 mm 6 m/s 667 mmHg 18%
    12:00 +32°C° 0 mm 6 m/s 667 mmHg 16%
    13:00 +32°C° 0 mm 6 m/s 667 mmHg 16%
    14:00 +33°C° 0 mm 7 m/s 666 mmHg 17%
    15:00 +33°C° 0 mm 7 m/s 666 mmHg 17%
    16:00 +32°C° 0 mm 6 m/s 665 mmHg 18%
    17:00 +32°C° 0 mm 5 m/s 665 mmHg 20%
    18:00 +30°C° 0 mm 4 m/s 664 mmHg 21%
    19:00 +29°C° 0 mm 3 m/s 664 mmHg 23%
    20:00 +29°C° 0 mm 2 m/s 664 mmHg 25%
    21:00 +28°C° 0 mm 1 m/s 664 mmHg 27%
    22:00 +27°C° 0 mm 2 m/s 664 mmHg 28%
    23:00 +26°C° 0 mm 2 m/s 663 mmHg 30%

    Après-demain, 7 Juin, Dimanche

    Heure Température Précipitation Vent Pression Humidité
    00:00 +25°C° 0 mm 2 m/s 663 mmHg 31%
    01:00 +24°C° 0 mm 3 m/s 663 mmHg 33%
    02:00 +24°C° 0 mm 3 m/s 662 mmHg 35%
    03:00 +22°C° 0 mm 3 m/s 662 mmHg 36%
    04:00 +22°C° 0 mm 4 m/s 662 mmHg 39%
    05:00 +21°C° 0 mm 5 m/s 662 mmHg 42%
    06:00 +21°C° 0 mm 6 m/s 662 mmHg 44%
    07:00 +22°C° 0 mm 6 m/s 663 mmHg 42%
    08:00 +22°C° 0 mm 6 m/s 663 mmHg 40%
    09:00 +23°C° 0 mm 6 m/s 663 mmHg 38%
    10:00 +24°C° 0 mm 6 m/s 663 mmHg 37%
    11:00 +26°C° 0 mm 5 m/s 664 mmHg 35%
    12:00 +27°C° 0 mm 5 m/s 664 mmHg 34%
    13:00 +27°C° 0 mm 5 m/s 663 mmHg 33%
    14:00 +27°C° 0 mm 5 m/s 663 mmHg 32%
    15:00 +28°C° 0 mm 6 m/s 663 mmHg 31%
    16:00 +27°C° 0 mm 6 m/s 663 mmHg 34%
    17:00 +26°C° 0 mm 7 m/s 663 mmHg 36%
    18:00 +26°C° 0 mm 7 m/s 663 mmHg 38%
    19:00 +24°C° 0 mm 8 m/s 663 mmHg 41%
    20:00 +23°C° 0 mm 8 m/s 663 mmHg 43%
    21:00 +22°C° 0 mm 8 m/s 663 mmHg 46%
    22:00 +21°C° 0 mm 7 m/s 663 mmHg 49%
    23:00 +20°C° 0 mm 7 m/s 663 mmHg 52%

    8 Juin, Lundi

    Heure Température Précipitation Vent Pression Humidité
    00:00 +19°C° 0 mm 6 m/s 663 mmHg 55%
    01:00 +19°C° 0 mm 6 m/s 663 mmHg 54%
    02:00 +17°C° 0 mm 5 m/s 662 mmHg 54%
    03:00 +17°C° 0 mm 4 m/s 662 mmHg 53%
    04:00 +16°C° 0 mm 5 m/s 662 mmHg 53%
    05:00 +16°C° 0 mm 5 m/s 662 mmHg 52%
    06:00 +17°C° 0 mm 6 m/s 662 mmHg 52%
    07:00 +19°C° 0 mm 6 m/s 663 mmHg 48%
    08:00 +20°C° 0 mm 6 m/s 663 mmHg 44%
    09:00 +22°C° 0 mm 6 m/s 664 mmHg 40%
    10:00 +23°C° 0 mm 5 m/s 664 mmHg 37%
    11:00 +25°C° 0 mm 5 m/s 664 mmHg 33%
    12:00 +26°C° 0 mm 4 m/s 664 mmHg 30%
    13:00 +26°C° 0 mm 4 m/s 663 mmHg 29%
    14:00 +27°C° 0 mm 5 m/s 663 mmHg 28%
    15:00 +27°C° 0 mm 5 m/s 663 mmHg 27%
    16:00 +26°C° 0.2 mm 5 m/s 663 mmHg 31%
    17:00 +24°C° 0.2 mm 6 m/s 663 mmHg 35%
    18:00 +23°C° 0.2 mm 6 m/s 662 mmHg 39%
    19:00 +22°C° 0 mm 7 m/s 663 mmHg 44%
    20:00 +21°C° 0 mm 8 m/s 663 mmHg 50%
    21:00 +18°C° 0 mm 8 m/s 663 mmHg 55%
    22:00 +18°C° 0 mm 8 m/s 663 mmHg 57%
    23:00 +17°C° 0 mm 8 m/s 663 mmHg 59%

    9 Juin, Mardi

    Heure Température Précipitation Vent Pression Humidité
    00:00 +16°C° 0 mm 7 m/s 663 mmHg 61%
    01:00 +16°C° 0 mm 7 m/s 663 mmHg 61%
    02:00 +15°C° 0 mm 7 m/s 662 mmHg 61%
    03:00 +15°C° 0 mm 6 m/s 662 mmHg 61%
    04:00 +15°C° 0 mm 6 m/s 662 mmHg 60%
    05:00 +15°C° 0 mm 6 m/s 662 mmHg 60%
    06:00 +15°C° 0 mm 6 m/s 663 mmHg 59%
    07:00 +16°C° 0 mm 6 m/s 663 mmHg 52%
    08:00 +19°C° 0 mm 6 m/s 663 mmHg 46%
    09:00 +20°C° 0 mm 5 m/s 664 mmHg 39%
    10:00 +21°C° 0 mm 5 m/s 664 mmHg 35%
    11:00 +23°C° 0 mm 5 m/s 665 mmHg 31%
    12:00 +25°C° 0 mm 5 m/s 665 mmHg 27%
    13:00 +25°C° 0 mm 5 m/s 665 mmHg 26%
    14:00 +26°C° 0 mm 5 m/s 664 mmHg 26%
    15:00 +26°C° 0 mm 5 m/s 664 mmHg 25%
    16:00 +26°C° 0 mm 6 m/s 664 mmHg 25%
    17:00 +26°C° 0 mm 6 m/s 664 mmHg 25%
    18:00 +26°C° 0 mm 6 m/s 664 mmHg 26%
    19:00 +23°C° 0 mm 6 m/s 665 mmHg 32%
    20:00 +22°C° 0 mm 6 m/s 665 mmHg 38%
    21:00 +20°C° 0 mm 6 m/s 665 mmHg 44%
    22:00 +20°C° 0 mm 5 m/s 665 mmHg 49%
    23:00 +19°C° 0 mm 4 m/s 664 mmHg 54%

    10 Juin, Mercredi

    Heure Température Précipitation Vent Pression Humidité
    00:00 +18°C° 0 mm 3 m/s 664 mmHg 59%
    01:00 +18°C° 0.1 mm 3 m/s 664 mmHg 58%
    02:00 +18°C° 0.1 mm 3 m/s 664 mmHg 57%
    03:00 +18°C° 0.1 mm 3 m/s 664 mmHg 56%
    04:00 +18°C° 0 mm 3 m/s 664 mmHg 54%
    05:00 +19°C° 0 mm 3 m/s 664 mmHg 52%
    06:00 +19°C° 0 mm 3 m/s 665 mmHg 51%
    07:00 +20°C° 0 mm 4 m/s 665 mmHg 47%
    08:00 +22°C° 0 mm 6 m/s 665 mmHg 44%
    09:00 +23°C° 0 mm 7 m/s 666 mmHg 40%
    10:00 +24°C° 0 mm 8 m/s 665 mmHg 38%
    11:00 +26°C° 0 mm 8 m/s 665 mmHg 35%
    12:00 +27°C° 0 mm 9 m/s 665 mmHg 33%
    13:00 +28°C° 0 mm 9 m/s 664 mmHg 32%
    14:00 +28°C° 0 mm 10 m/s 664 mmHg 31%
    15:00 +28°C° 0 mm 11 m/s 663 mmHg 29%
    16:00 +29°C° 0 mm 11 m/s 662 mmHg 29%
    17:00 +29°C° 0 mm 11 m/s 662 mmHg 28%
    18:00 +29°C° 0 mm 11 m/s 662 mmHg 28%
    19:00 +28°C° 0 mm 11 m/s 662 mmHg 30%
    20:00 +27°C° 0 mm 11 m/s 662 mmHg 32%
    21:00 +26°C° 0 mm 12 m/s 662 mmHg 34%
    22:00 +23°C° 0 mm 10 m/s 662 mmHg 41%
    23:00 +21°C° 0 mm 7 m/s 662 mmHg 49%
    Voir plus